This is the latest recevied weather packets stored in our database for station/object KC1IUC-15. If no packets are shown the sender has not sent any weather packets the latest 10 day(s).
| Time | Temp. | Humidity | Pressure | Rain* | Wind** | Luminosity | Snow |
|---|---|---|---|---|---|---|---|
| 1777929003 | 20.56° C | 37% | 1008.2 hPa | 0 mm | - | 305 W/m² | - |
| 1777928703 | 20.56° C | 36% | 1007.9 hPa | 0 mm | - | 320 W/m² | - |
| 1777928403 | 21.11° C | 36% | 1008.2 hPa | 0 mm | - | 323 W/m² | - |
| 1777928103 | 21.11° C | 35% | 1007.9 hPa | 0 mm | - | 326 W/m² | - |
| 1777927803 | 22.22° C | 34% | 1007.9 hPa | 0 mm | - | 340 W/m² | - |
| 1777927503 | 22.22° C | 34% | 1007.9 hPa | 0 mm | - | 338 W/m² | - |
| 1777927203 | 22.78° C | 32% | 1007.9 hPa | 0 mm | - | 246 W/m² | - |
| 1777926903 | 23.33° C | 29% | 1007.9 hPa | 0 mm | - | 194 W/m² | - |
| 1777926603 | 23.33° C | 26% | 1007.9 hPa | 0 mm | - | 375 W/m² | - |
| 1777926303 | 23.33° C | 27% | 1007.9 hPa | 0 mm | - | 412 W/m² | - |
| 1777926003 | 23.33° C | 27% | 1007.9 hPa | 0 mm | - | 398 W/m² | - |
| 1777925703 | 22.78° C | 28% | 1007.9 hPa | 0 mm | - | 437 W/m² | - |
| 1777925403 | 22.78° C | 27% | 1007.9 hPa | 0 mm | - | 439 W/m² | - |
| 1777925103 | 23.33° C | 27% | 1007.9 hPa | 0 mm | - | 272 W/m² | - |
| 1777924803 | 23.33° C | 28% | 1007.9 hPa | 0 mm | - | 503 W/m² | - |
| 1777924503 | 23.33° C | 27% | 1007.9 hPa | 0 mm | - | 507 W/m² | - |
| 1777924203 | 23.33° C | 28% | 1007.9 hPa | 0 mm | - | 483 W/m² | - |
| 1777923903 | 22.78° C | 29% | 1008.2 hPa | 0 mm | - | 493 W/m² | - |
| 1777923603 | 22.78° C | 27% | 1008.2 hPa | 0 mm | - | 506 W/m² | - |
| 1777923303 | 22.78° C | 29% | 1007.9 hPa | 0 mm | - | 516 W/m² | - |
| 1777923003 | 22.78° C | 29% | 1008.2 hPa | 0 mm | - | 529 W/m² | - |
| 1777922704 | 22.78° C | 27% | 1008.2 hPa | 0 mm | - | 557 W/m² | - |
| 1777922403 | 22.78° C | 28% | 1008.2 hPa | 0 mm | - | 574 W/m² | - |
| 1777922103 | 22.78° C | 27% | 1008.2 hPa | 0 mm | - | 155 W/m² | - |
| 1777921803 | 22.22° C | 28% | 1008.6 hPa | 0 mm | - | 562 W/m² | - |
* Rain latest hour (hover to see other rain measurements)
** Current wind speed in m/s (hover to see current wind gust speed)